Showing default

GREGOIRE, 56946

Orbit data source: Space-Track

GREGOIRE, 56946 is a payload satellite owned by Aerospacelab (BE) in SSO that was launched on Mon, 12 Jun 2023 UTC via an FALCON 9 launch vehicle from the Air Force Western Test Range (AFWTR). Payload-class satellites include a variety of spacecraft equipped with specific instruments for various scientific and technological missions. These include communications satellites like Starlink; space stations such as the ISS; scientific satellites like the Hubble; Earth observation satellites from companies like Planet Labs, Umbra, and HawkEye 360; GPS; miniature CubeSats for education and research; and military/defense satellites.

Loading next visibility...
Identifier
56946, 2023-084Q
Orbit
SSO
Country
Flag of BEBE / BEL
Related business
Manufacturer
Aerospacelab
Mission
Operational Commercial Imaging
Bus & Motor
VSP, Unknown motor
Mass
100 kg wet, 100 kg dry
Launch date (UTC)
2023-06-12 (3 years ago)
Launch vehicle
FALCON 9
Launch site
Air Force Western Test Range (AFWTR)
Object type
Payload
Rocket body
Debris
Shape & HBR
Box + 2 Pan, 1.0 m
Radar Cross Section
0.963 m², Large (>1 m²)

Expand to show TLE details & history
Last TLE update: 21 hours ago

TLE from 21 hours ago
0 GREGOIRE
1 56946U 23084Q   26206.64598850  .00008617  00000-0  22577-3 0  9996
2 56946  97.6279 352.0468 0006489 166.4149 193.7271 15.38934208173620
Epoch: 2026-07-25T15:30Z
TLE epoch observation values (Epoch: 2026-07-25T15:30:13.406Z)
Latitude
-0.00008°
Longitude
176.13567°
Altitude
456.674 km
Speed
7.636 km/s
True Right ascension
23h 28m 11s
True Declination
0° 00' 00"
Sunlit
Object was in full shadow at epoch
Visualization orbit readout
Latitude
Unknown
Longitude
Unknown
Altitude
Unknown
Speed
Unknown
Apparent Right ascension
Unknown
Apparent Declination
Unknown
Sunlit
N/A
Visualization observer readout
Local Sidereal Time
01:56:01
Azimuth
Unknown
Elevation
Unknown
Doppler factor
Unknown
Orbital elements
Apogee altitude
450.638 km
Perigee altitude
441.782 km
Semi-major axis
6,824.347 km
Eccentricity
0.00065
Inclination
97.6279°
RAAN
352.0468°
Arg. of periapsis
166.4149°
True anomaly
193.70947°
Mean anomaly
193.7271°
Eccentric anomaly
193.71828°
Mean motion
3.84992 °/min
Orbital period
93.51 mins
BSTAR
0.00022577
Loading maneuver chart data...
Computing Atmospheric mass density...
Loading historical data...
Loading historical data...
Loading historical data...
Loading historical data...
Loading historical data...
Loading historical data...
Loading historical data...

Documentation

Showing up to 5 results
|